Location: Cactus School
(34.5700°N, 118.0931°W)
Time: 00:27:26
(UTC-07:00)

Transit 4A - Pass Details

Date: 19 April 2024
Orbit: 871 x 971 km, 66.8° (Epoch: 17 May)

Event Time Altitude Azimuth Distance (km) Brightness Sun altitude
Rises 22:03:53 0° 342° (NNW) 3,464 11.8 -29.1°
Reaches altitude 10° 22:06:35 10° 351° (N) 2,525 10.8 -29.5°
Enters shadow 22:10:52 33° 35° (NE) 1,437 8.9 -30.1°
Maximum altitude 22:11:54 35° 57° (ENE) 1,377 - -30.3°
Drops below altitude 10° 22:17:15 10° 122° (ESE) 2,547 - -31.1°
Sets 22:19:58 0° 131° (SE) 3,498 - -31.5°
